(188181) = 2002 JH108

Discovered at Palomar on 2002-05-14 by NEAT.

Orbit

Orbit type: Main Belt

Note: WebGL enabled browser required.

epoch2024-03-31.0
epoch JD2460400.5
perihelion date2019-11-10.37039
perihelion JD2458797.87039
argument of perihelion (°)129.56720
ascending node (°)143.36498
inclination (°)17.58264
eccentricity0.1883911
perihelion distance (AU)2.5624719
Tisserand w.r.t. Jupiter3.1
ΔV w.r.t. Earth (km/sec)11.4
semimajor axis (AU)3.1572741
mean anomaly (°)281.55846
mean daily motion (°/day)0.17568530
aphelion distance (AU)3.752
period (years)5.61
P-vector [x]0.07264375
P-vector [y]-0.98239574
P-vector [z]-0.17210897
Q-vector [x]0.98093348
Q-vector [y]0.10156395
Q-vector [z]-0.16569330
absolute magnitude14.84
phase slope0.15
uncertainty0
referenceMPEC 2024-F28
observations used822
oppositions16
arc length (days)8042
first opposition used2002
last opposition used2024
residual rms (arc-secs)0.77
perturbers coarse indicatorM-v
perturbers precise indicator003Ek
first observation date used2002-03-12.0
last observation date used2024-03-18.0
computer nameMPCLINUX
JD of orbit computation2456937.345088
perihelion JD uncertainty (days)1.2130E-04
argument of perihelion uncertainty (°)3.1451E-05
ascending node uncertainty (°)1.5840E-05
inclination uncertainty (°)6.6885E-06
eccentricity uncertainty 5.3278E-08
perihelion distance uncertainty (AU)1.6783E-07
Minimum Orbit Intersection Distances (in AU)
for orbit epoch: 2460400.5, reference: E2024-GF4
Mercury2.12814
Venus1.86532
Earth1.58423
Mars1.2159
Jupiter1.68183
Saturn5.42993
Uranus14.9874
Neptune26.3471

Observations

812 total observations over interval: 2002 03 12.41343 – 2024 03 18.213998
These data are available for download (format description).

Date (UT) J2000 RA J2000 Dec Magn Location Ref
2002 03 12.41343 14 22 15.87 +07 10 37.5 19.1   704 – Lincoln Laboratory ETS, New Mexico MPS 57752
2002 03 12.43170 14 22 15.81 +07 10 48.1 19.1   704 – Lincoln Laboratory ETS, New Mexico MPS 57752
2002 03 12.44987 14 22 15.61 +07 10 57.4 19.2   704 – Lincoln Laboratory ETS, New Mexico MPS 57752
2002 03 12.46789 14 22 15.52 +07 11 07.9 19.0   704 – Lincoln Laboratory ETS, New Mexico MPS 57752
2002 03 12.48569 14 22 15.32 +07 11 17.6 19.3   704 – Lincoln Laboratory ETS, New Mexico MPS 57752
2002 03 20.41761 14 20 40.78 +08 26 43.6 19.2   704 – Lincoln Laboratory ETS, New Mexico MPS 57752
2002 03 20.43061 14 20 40.52 +08 26 51.7 19.0   704 – Lincoln Laboratory ETS, New Mexico MPS 57752
2002 03 20.45586 14 20 40.05 +08 27 05.8 19.0   704 – Lincoln Laboratory ETS, New Mexico MPS 57752
2002 03 20.46817 14 20 39.75 +08 27 12.9 18.9   704 – Lincoln Laboratory ETS, New Mexico MPS 57752
2002 04 11.36369 14 09 55.90 +11 49 56.6 19.3   644 – Palomar Mountain/NEAT MPS 57752
2002 04 11.38587 14 09 55.00 +11 50 07.1 18.9   644 – Palomar Mountain/NEAT MPS 57752
2002 04 11.40793 14 09 54.09 +11 50 18.1 18.8   644 – Palomar Mountain/NEAT MPS 57752
2002 04 21.34653 14 03 02.36 +13 03 08.7 18.9   644 – Palomar Mountain/NEAT MPS 57752
2002 04 21.36743 14 03 01.44 +13 03 16.6 18.9   644 – Palomar Mountain/NEAT MPS 57752
2002 04 21.38835 14 03 00.52 +13 03 24.6 19.5   644 – Palomar Mountain/NEAT MPS 57752
2002 05 06.26877 13 52 40.29 +14 11 00.3 18.6   704 – Lincoln Laboratory ETS, New Mexico MPS 57752
2002 05 06.28089 13 52 39.87 +14 11 02.8 18.8   704 – Lincoln Laboratory ETS, New Mexico MPS 57752
2002 05 06.29310 13 52 39.30 +14 11 04.7 19.1   704 – Lincoln Laboratory ETS, New Mexico MPS 57752
2002 05 06.30521 13 52 38.83 +14 11 06.3 19.0   704 – Lincoln Laboratory ETS, New Mexico MPS 57752
2002 05 06.31732 13 52 38.35 +14 11 08.4 19.1   704 – Lincoln Laboratory ETS, New Mexico MPS 57752
2002 05 14.32601 13 47 51.25 +14 23 47.3 19.2   644 – Palomar Mountain/NEAT MPS 55480
2002 05 14.34636 13 47 50.56 +14 23 47.7 18.9   644 – Palomar Mountain/NEAT MPS 55480
2002 05 14.36784 13 47 49.83 +14 23 48.4 18.8   644 – Palomar Mountain/NEAT MPS 55480
2002 05 15.22792 13 47 22.44 +14 24 08.2 18.5   704 – Lincoln Laboratory ETS, New Mexico MPS 57752
2002 05 15.24282 13 47 21.90 +14 24 08.8 18.5   704 – Lincoln Laboratory ETS, New Mexico MPS 57752
2002 05 15.27252 13 47 21.04 +14 24 08.3 18.8   704 – Lincoln Laboratory ETS, New Mexico MPS 57752
2002 05 15.28704 13 47 20.48 +14 24 09.3 19.1   704 – Lincoln Laboratory ETS, New Mexico MPS 57752
2002 05 16.29458 13 46 49.25 +14 24 18.0 19.0   644 – Palomar Mountain/NEAT MPS 55480
2002 05 16.31562 13 46 48.56 +14 24 18.2 19.3   644 – Palomar Mountain/NEAT MPS 55480
2002 05 16.33792 13 46 47.86 +14 24 18.3 19.1   644 – Palomar Mountain/NEAT MPS 55480
2003 08 04.28984 22 07 41.31 -11 19 44.2 18.6   704 – Lincoln Laboratory ETS, New Mexico MPS 83355
2003 08 04.30044 22 07 40.94 -11 19 50.0 19.2   704 – Lincoln Laboratory ETS, New Mexico MPS 83355
2003 08 04.31080 22 07 40.48 -11 19 56.3 19.3   704 – Lincoln Laboratory ETS, New Mexico MPS 83355
2003 08 04.32127 22 07 40.14 -11 20 02.1 19.0   704 – Lincoln Laboratory ETS, New Mexico MPS 83355
2003 08 22.26367 21 55 57.57 -14 30 17.0 17.9   704 – Lincoln Laboratory ETS, New Mexico MPS 83355
2003 08 22.27654 21 55 57.02 -14 30 25.2 18.2   704 – Lincoln Laboratory ETS, New Mexico MPS 83355
2003 08 22.28915 21 55 56.49 -14 30 32.9 18.3   704 – Lincoln Laboratory ETS, New Mexico MPS 83355
2003 08 22.30175 21 55 55.94 -14 30 40.4 18.0   704 – Lincoln Laboratory ETS, New Mexico MPS 83355
2003 08 23.29734 21 55 15.15 -14 41 07.2 18.5   704 – Lincoln Laboratory ETS, New Mexico MPS 83355
2003 08 23.31013 21 55 14.70 -14 41 14.3 18.0   704 – Lincoln Laboratory ETS, New Mexico MPS 83355
2003 08 23.32257 21 55 14.06 -14 41 22.7 19.1   704 – Lincoln Laboratory ETS, New Mexico MPS 83355
2003 08 23.33501 21 55 13.52 -14 41 29.8 18.6   704 – Lincoln Laboratory ETS, New Mexico MPS 83355
2003 08 25.28112 21 53 54.40 -15 01 42.2 19.1   704 – Lincoln Laboratory ETS, New Mexico MPS 83355
2003 08 25.29402 21 53 53.88 -15 01 51.6 18.9   704 – Lincoln Laboratory ETS, New Mexico MPS 83355
2003 08 25.30644 21 53 53.26 -15 01 59.0 18.9   704 – Lincoln Laboratory ETS, New Mexico MPS 83355
2003 08 25.31888 21 53 52.72 -15 02 06.8 19.0   704 – Lincoln Laboratory ETS, New Mexico MPS 83355
2003 08 31.26258 21 49 59.23 -16 01 35.5 18.3   704 – Lincoln Laboratory ETS, New Mexico MPS 84041
2003 08 31.27450 21 49 58.77 -16 01 42.2 18.6   704 – Lincoln Laboratory ETS, New Mexico MPS 84041
2003 08 31.28638 21 49 58.31 -16 01 49.2 18.4   704 – Lincoln Laboratory ETS, New Mexico MPS 84041
2003 08 31.29818 21 49 57.75 -16 01 56.0 18.4   704 – Lincoln Laboratory ETS, New Mexico MPS 84041
2003 08 31.31000 21 49 57.34 -16 02 02.7 18.5   704 – Lincoln Laboratory ETS, New Mexico MPS 84041
2003 09 15.18812 21 42 05.77 -18 09 12.0 18.6 R 699 – Lowell Observatory-LONEOS MPS 85220
2003 09 15.20310 21 42 05.39 -18 09 19.5   699 – Lowell Observatory-LONEOS MPS 85220
2003 09 15.21801 21 42 05.04 -18 09 25.5   699 – Lowell Observatory-LONEOS MPS 85220
2003 09 15.23288 21 42 04.62 -18 09 32.6   699 – Lowell Observatory-LONEOS MPS 85220
2003 09 22.17446 21 39 46.44 -18 55 31.1 18.7 R 699 – Lowell Observatory-LONEOS MPS 85220
2003 09 22.18940 21 39 46.17 -18 55 35.5   699 – Lowell Observatory-LONEOS MPS 85220
2003 09 22.20430 21 39 46.01 -18 55 42.5   699 – Lowell Observatory-LONEOS MPS 85220
2003 09 22.21929 21 39 45.67 -18 55 45.9   699 – Lowell Observatory-LONEOS MPS 85220
2003 09 25.13148 21 39 06.42 -19 12 16.1 19.3   644 – Palomar Mountain/NEAT MPS 85220
2003 09 25.15422 21 39 06.12 -19 12 23.1 19.0   644 – Palomar Mountain/NEAT MPS 85220
2003 09 25.17550 21 39 05.86 -19 12 30.0 18.9   644 – Palomar Mountain/NEAT MPS 85220
2003 09 28.16286 21 38 37.59 -19 27 41.9 19.7   704 – Lincoln Laboratory ETS, New Mexico MPS 86218
2003 09 28.17610 21 38 37.57 -19 27 45.8 19.5   704 – Lincoln Laboratory ETS, New Mexico MPS 86218
2003 09 28.20253 21 38 37.26 -19 27 53.1 19.8   704 – Lincoln Laboratory ETS, New Mexico MPS 86218
2003 09 28.21546 21 38 37.17 -19 27 57.0 19.8   704 – Lincoln Laboratory ETS, New Mexico MPS 86218
2006 11 16.47161 10 37 44.11 +08 10 24.5 21.8 V G96 – Mt. Lemmon Survey MPS 186857
2006 11 16.47740 10 37 44.40 +08 10 24.1 21.2 V G96 – Mt. Lemmon Survey MPS 186857
2006 11 16.48314 10 37 44.72 +08 10 23.4 20.4 V G96 – Mt. Lemmon Survey MPS 186857
2006 11 16.48880 10 37 44.94 +08 10 22.8 21.7 V G96 – Mt. Lemmon Survey MPS 186857
2006 12 23.47891 10 58 28.20 +07 58 05.5 19.8 V G96 – Mt. Lemmon Survey MPS 191965
2006 12 23.48655 10 58 28.34 +07 58 04.6 20.7 V G96 – Mt. Lemmon Survey MPS 191965
2006 12 23.49413 10 58 28.48 +07 58 05.4 20.4 V G96 – Mt. Lemmon Survey MPS 191965
2006 12 23.50163 10 58 28.63 +07 58 06.3 20.8 V G96 – Mt. Lemmon Survey MPS 191965
2006 12 27.39920 10 59 27.38 +08 06 39.3 20.6 V G96 – Mt. Lemmon Survey MPS 191965
2006 12 27.40431 10 59 27.42 +08 06 40.1 20.8 V G96 – Mt. Lemmon Survey MPS 191965
2006 12 27.40948 10 59 27.49 +08 06 40.8 20.5 V G96 – Mt. Lemmon Survey MPS 191965
2006 12 27.41461 10 59 27.56 +08 06 41.6 20.6 V G96 – Mt. Lemmon Survey MPS 191965
2007 02 08.30254 10 51 26.80 +12 05 57.0   691 – Steward Observatory, Kitt Peak-Spacewatch MPS 198654
2007 02 08.32022 10 51 26.17 +12 06 05.6   691 – Steward Observatory, Kitt Peak-Spacewatch MPS 198654
2007 02 08.33792 10 51 25.56 +12 06 14.3   691 – Steward Observatory, Kitt Peak-Spacewatch MPS 198654
2007 02 26.19797 10 39 38.26 +14 37 41.1 19.1 V G96 – Mt. Lemmon Survey MPS 201469
2007 02 26.20418 10 39 38.01 +14 37 44.0 19.1 V G96 – Mt. Lemmon Survey MPS 201469
2007 02 26.21041 10 39 37.72 +14 37 47.7 19.4 V G96 – Mt. Lemmon Survey MPS 201469
2007 02 26.21670 10 39 37.47 +14 37 50.9 19.4 V G96 – Mt. Lemmon Survey MPS 201469
2007 03 09.26394 10 31 42.75 +16 07 24.3 19.1 R 644 – Palomar Mountain/NEAT MPS 202968
2007 03 09.28440 10 31 41.89 +16 07 33.2 19.0 R 644 – Palomar Mountain/NEAT MPS 202968
2007 03 09.30478 10 31 41.00 +16 07 42.9 19.5 R 644 – Palomar Mountain/NEAT MPS 202968
